Location: Augsburg
(48.3836°N, 10.8929°E)
Time: 03:47:55
(UTC+01:00)

ISS - Pass Details

Date: 17 November 2017
Orbit: 402 x 407 km, 51.6° (Epoch: 21 November)

Event Time Altitude Azimuth Distance (km) Brightness Sun altitude
Exits shadow 04:48:21 16° 139° (SE) 1,157 -1.1 -26.1°
Drops below altitude 10° 04:49:06 10° 135° (SE) 1,450 -0.5 -26.0°
Sets 04:51:12 0° 129° (SE) 2,306 0.8 -25.7°
